QPF
0.03 0.03 0.02 0.01 0.01 0.01 0.01 0.01 0.03 0.05 0.05 0.03 0.02 0.02 0.02 0.03 0.02 0.02 0.02 0.02 0.01 0.01 0.00 0.00 0.00 0.00 0.00 0.00 0.00 0.00 0.00 0.00 0.00 0.00 0.00 0.00 0.00 0.00
0.04 0.03 0.03 0.02 0.01 0.01 0.01 0.01 0.01 0.02 0.03 0.03 0.03 0.04 0.04 0.04 0.02 0.01 0.01 0.02 0.01 0.00 0.00 0.00 0.00 0.00 0.00 0.01 0.01 0.00 0.00 0.00 0.00 0.00 0.00 0.00 0.00 0.00
0.05 0.04 0.04 0.04 0.04 0.02 0.02 0.02 0.02 0.02 0.03 0.03 0.03 0.04 0.04 0.02 0.02 0.01 0.01 0.01 0.00 0.00 0.00 0.00 0.00 0.00 0.00 0.00 0.00 0.00 0.00 0.00 0.00 0.00 0.00 0.00 0.00 0.00
0.09 0.09 0.07 0.06 0.06 0.05 0.04 0.04 0.04 0.04 0.05 0.06 0.05 0.05 0.04 0.02 0.01 0.01 0.01 0.01 0.00 0.00 0.00 0.00 0.00 0.00 0.00 0.00 0.00 0.00 0.00 0.00 0.00 0.00 0.00 0.00 0.00 0.00
0.10 0.10 0.09 0.08 0.08 0.06 0.05 0.05 0.04 0.04 0.05 0.05 0.05 0.04 0.02 0.02 0.03 0.03 0.02 0.02 0.01 0.00 0.00 0.00 0.00 0.00 0.00 0.00 0.00 0.00 0.00 0.00 0.00 0.00 0.00 0.00 0.00 0.00
0.10 0.09 0.07 0.06 0.06 0.07 0.07 0.06 0.05 0.06 0.06 0.06 0.06 0.06 0.06 0.06 0.05 0.05 0.06 0.06 0.03 0.01 0.01 0.01 0.00 0.00 0.00 0.00 0.00 0.00 0.00 0.00 0.00 0.00 0.00 0.00 0.00 0.00
0.07 0.07 0.05 0.05 0.05 0.06 0.05 0.07 0.08 0.09 0.10 0.10 0.10 0.09 0.09 0.08 0.07 0.06 0.06 0.05 0.04 0.02 0.02 0.01 0.01 0.00 0.00 0.00 0.00 0.00 0.00 0.00 0.00 0.00 0.00 0.00 0.00 0.00
0.09 0.08 0.07 0.06 0.06 0.06 0.05 0.06 0.07 0.08 0.09 0.09 0.10 0.09 0.07 0.06 0.06 0.06 0.05 0.04 0.03 0.02 0.01 0.01 0.00 0.01 0.00 0.00 0.00 0.00 0.00 0.00 0.00 0.00 0.00 0.00 0.00 0.00
0.11 0.12 0.11 0.08 0.08 0.07 0.07 0.06 0.06 0.06 0.06 0.06 0.07 0.06 0.05 0.05 0.04 0.03 0.03 0.03 0.02 0.01 0.01 0.01 0.01 0.00 0.00 0.00 0.00 0.00 0.00 0.00 0.00 0.00 0.00 0.00 0.00 0.00
0.08 0.10 0.11 0.09 0.07 0.07 0.06 0.05 0.04 0.03 0.03 0.03 0.04 0.04 0.03 0.02 0.02 0.02 0.02 0.02 0.01 0.01 0.01 0.00 0.00 0.00 0.00 0.00 0.00 0.00 0.00 0.00 0.00 0.00 0.00 0.00 0.00 0.00
0.07 0.07 0.06 0.05 0.06 0.05 0.04 0.04 0.03 0.03 0.02 0.02 0.01 0.01 0.01 0.01 0.01 0.01 0.01 0.01 0.01 0.01 0.00 0.00 0.00 0.00 0.00 0.00 0.00 0.00 0.00 0.00 0.00 0.00 0.00 0.00 0.00 0.00
0.09 0.07 0.07 0.06 0.05 0.04 0.04 0.04 0.04 0.03 0.03 0.02 0.02 0.02 0.02 0.02 0.02 0.01 0.01 0.01 0.01 0.01 0.00 0.00 0.00 0.00 0.00 0.00 0.00 0.00 0.00 0.00 0.00 0.00 0.00 0.00 0.00 0.00
0.11 0.09 0.08 0.07 0.05 0.03 0.03 0.03 0.04 0.04 0.02 0.02 0.01 0.01 0.01 0.01 0.01 0.01 0.01 0.01 0.01 0.00 0.00 0.00 0.00 0.00 0.00 0.00 0.00 0.00 0.00 0.00 0.00 0.00 0.00 0.00 0.00 0.00
0.11 0.09 0.07 0.06 0.05 0.04 0.03 0.03 0.03 0.02 0.02 0.02 0.01 0.01 0.00 0.00 0.00 0.00 0.00 0.00 0.00 0.00 0.00 0.00 0.00 0.00 0.00 0.00 0.00 0.00 0.00 0.00 0.00 0.00 0.00 0.00 0.00 0.00
0.08 0.09 0.07 0.06 0.05 0.05 0.05 0.05 0.04 0.04 0.03 0.03 0.02 0.01 0.00 0.00 0.00 0.00 0.00 0.00 0.00 0.00 0.00 0.00 0.00 0.00 0.00 0.00 0.00 0.00 0.00 0.00 0.00 0.00 0.00 0.00 0.01 0.01
0.09 0.10 0.09 0.08 0.07 0.06 0.06 0.05 0.04 0.03 0.02 0.01 0.01 0.00 0.00 0.00 0.00 0.00 0.00 0.00 0.00 0.00 0.00 0.00 0.00 0.00 0.01 0.01 0.01 0.01 0.00 0.00 0.00 0.00 0.00 0.01 0.01 0.01
0.14 0.13 0.12 0.10 0.08 0.06 0.04 0.03 0.03 0.02 0.02 0.02 0.02 0.01 0.01 0.01 0.00 0.00 0.00 0.00 0.00 0.00 0.00 0.00 0.00 0.00 0.00 0.01 0.01 0.01 0.00 0.00 0.00 0.01 0.01 0.01 0.01 0.01
0.10 0.09 0.08 0.06 0.05 0.05 0.04 0.04 0.03 0.02 0.02 0.01 0.01 0.00 0.00 0.00 0.00 0.00 0.00 0.00 0.00 0.00 0.00 0.00 0.00 0.00 0.00 0.00 0.00 0.00 0.00 0.01 0.01 0.01 0.01 0.01 0.01 0.01
0.05 0.05 0.04 0.04 0.03 0.03 0.02 0.01 0.01 0.00 0.00 0.00 0.00 0.00 0.00 0.00 0.00 0.00 0.00 0.00 0.00 0.00 0.00 0.00 0.00 0.01 0.01 0.00 0.00 0.00 0.01 0.01 0.01 0.01 0.01 0.01 0.01 0.01
0.02 0.02 0.01 0.01 0.01 0.01 0.00 0.00 0.00 0.00 0.00 0.00 0.00 0.00 0.00 0.00 0.00 0.00 0.00 0.00 0.00 0.00 0.00 0.01 0.01 0.01 0.01 0.01 0.01 0.01 0.01 0.01 0.02 0.01 0.01 0.01 0.00 0.00
0.01 0.00 0.00 0.00 0.00 0.00 0.00 0.00 0.00 0.00 0.00 0.00 0.00 0.00 0.00 0.00 0.00 0.00 0.00 0.00 0.00 0.01 0.01 0.01 0.01 0.00 0.01 0.01 0.01 0.01 0.01 0.01 0.02 0.02 0.01 0.01 0.01 0.00
0.00 0.00 0.00 0.00 0.00 0.00 0.00 0.00 0.00 0.00 0.00 0.00 0.00 0.00 0.00 0.00 0.00 0.00 0.00 0.00 0.00 0.01 0.01 0.01 0.00 0.00 0.01 0.01 0.02 0.02 0.02 0.01 0.01 0.01 0.00 0.00 0.01 0.01
0.00 0.00 0.00 0.00 0.00 0.00 0.00 0.00 0.00 0.00 0.00 0.00 0.00 0.00 0.00 0.00 0.00 0.00 0.00 0.00 0.01 0.01 0.01 0.00 0.00 0.01 0.01 0.02 0.02 0.03 0.03 0.02 0.01 0.01 0.00 0.00 0.00 0.00
MSLP
1016.83 1017.15 1017.47 1017.78 1018.05 1018.27 1018.42 1018.52 1018.56 1018.57 1018.56 1018.55 1018.55 1018.56 1018.60 1018.66 1018.75 1018.87 1019.01 1019.17 1019.36 1019.55 1019.74 1019.90 1020.03 1020.10 1020.12 1020.08 1020.01 1019.91 1019.82 1019.75 1019.71 1019.72 1019.75 1019.80 1019.84 1019.85
1016.51 1016.81 1017.10 1017.37 1017.61 1017.82 1018.00 1018.15 1018.28 1018.39 1018.50 1018.60 1018.70 1018.80 1018.88 1018.96 1019.03 1019.10 1019.17 1019.26 1019.37 1019.49 1019.62 1019.74 1019.85 1019.93 1019.97 1019.96 1019.93 1019.87 1019.81 1019.76 1019.73 1019.73 1019.75 1019.78 1019.79 1019.77
1016.31 1016.62 1016.90 1017.15 1017.38 1017.60 1017.81 1018.01 1018.22 1018.44 1018.66 1018.87 1019.08 1019.25 1019.38 1019.47 1019.52 1019.53 1019.52 1019.51 1019.51 1019.54 1019.59 1019.66 1019.74 1019.81 1019.87 1019.90 1019.91 1019.90 1019.88 1019.86 1019.85 1019.85 1019.86 1019.86 1019.85 1019.79
1016.32 1016.66 1016.96 1017.23 1017.47 1017.70 1017.93 1018.19 1018.47 1018.77 1019.09 1019.41 1019.70 1019.94 1020.11 1020.19 1020.20 1020.15 1020.05 1019.93 1019.82 1019.74 1019.69 1019.69 1019.73 1019.79 1019.86 1019.92 1019.97 1020.00 1020.02 1020.03 1020.04 1020.05 1020.05 1020.03 1019.99 1019.91
1016.57 1016.98 1017.33 1017.63 1017.90 1018.15 1018.42 1018.71 1019.05 1019.41 1019.80 1020.19 1020.54 1020.82 1021.00 1021.08 1021.05 1020.93 1020.73 1020.50 1020.28 1020.09 1019.95 1019.87 1019.85 1019.88 1019.94 1020.02 1020.09 1020.16 1020.21 1020.25 1020.27 1020.28 1020.28 1020.24 1020.18 1020.06
1017.07 1017.58 1018.00 1018.35 1018.65 1018.93 1019.22 1019.54 1019.90 1020.30 1020.72 1021.13 1021.51 1021.80 1021.99 1022.05 1021.97 1021.79 1021.51 1021.19 1020.87 1020.57 1020.34 1020.19 1020.11 1020.10 1020.13 1020.20 1020.28 1020.36 1020.43 1020.47 1020.50 1020.51 1020.49 1020.43 1020.34 1020.21
1017.80 1018.40 1018.89 1019.30 1019.63 1019.93 1020.23 1020.55 1020.90 1021.29 1021.71 1022.12 1022.49 1022.77 1022.94 1022.97 1022.87 1022.63 1022.30 1021.92 1021.52 1021.15 1020.85 1020.63 1020.49 1020.43 1020.42 1020.46 1020.52 1020.58 1020.64 1020.67 1020.68 1020.67 1020.63 1020.55 1020.43 1020.27
1018.69 1019.36 1019.91 1020.35 1020.71 1021.02 1021.30 1021.59 1021.91 1022.26 1022.64 1023.01 1023.34 1023.60 1023.74 1023.75 1023.63 1023.38 1023.02 1022.61 1022.18 1021.77 1021.42 1021.15 1020.96 1020.85 1020.79 1020.78 1020.80 1020.82 1020.83 1020.82 1020.79 1020.74 1020.66 1020.55 1020.40 1020.21
1019.67 1020.37 1020.95 1021.41 1021.77 1022.05 1022.30 1022.54 1022.80 1023.08 1023.39 1023.70 1023.97 1024.19 1024.31 1024.31 1024.19 1023.95 1023.61 1023.21 1022.79 1022.38 1022.02 1021.72 1021.49 1021.32 1021.21 1021.14 1021.09 1021.04 1020.98 1020.91 1020.82 1020.71 1020.58 1020.43 1020.24 1020.02
1020.67 1021.36 1021.92 1022.36 1022.69 1022.93 1023.12 1023.29 1023.47 1023.67 1023.90 1024.14 1024.35 1024.53 1024.63 1024.63 1024.53 1024.33 1024.04 1023.69 1023.31 1022.93 1022.59 1022.28 1022.03 1021.83 1021.66 1021.52 1021.39 1021.26 1021.11 1020.96 1020.79 1020.61 1020.41 1020.19 1019.96 1019.71
1021.63 1022.26 1022.77 1023.16 1023.43 1023.62 1023.74 1023.84 1023.94 1024.06 1024.20 1024.36 1024.52 1024.66 1024.74 1024.76 1024.70 1024.55 1024.32 1024.05 1023.73 1023.41 1023.10 1022.82 1022.56 1022.32 1022.10 1021.89 1021.68 1021.46 1021.23 1020.98 1020.72 1020.46 1020.19 1019.91 1019.63 1019.35
1022.52 1023.06 1023.49 1023.80 1024.01 1024.13 1024.19 1024.22 1024.25 1024.29 1024.37 1024.46 1024.58 1024.68 1024.76 1024.79 1024.76 1024.67 1024.51 1024.31 1024.07 1023.82 1023.55 1023.29 1023.03 1022.78 1022.52 1022.25 1021.96 1021.66 1021.34 1021.00 1020.66 1020.31 1019.97 1019.64 1019.32 1019.00
1023.31 1023.75 1024.08 1024.31 1024.45 1024.51 1024.52 1024.50 1024.48 1024.48 1024.50 1024.55 1024.62 1024.70 1024.77 1024.81 1024.81 1024.76 1024.66 1024.52 1024.35 1024.15 1023.93 1023.69 1023.44 1023.17 1022.88 1022.56 1022.21 1021.84 1021.45 1021.04 1020.62 1020.21 1019.82 1019.43 1019.07 1018.73
1024.00 1024.32 1024.56 1024.72 1024.80 1024.83 1024.81 1024.77 1024.72 1024.70 1024.69 1024.71 1024.76 1024.81 1024.86 1024.90 1024.91 1024.88 1024.82 1024.71 1024.58 1024.41 1024.22 1024.00 1023.75 1023.47 1023.16 1022.81 1022.42 1021.99 1021.55 1021.09 1020.62 1020.17 1019.73 1019.31 1018.93 1018.57
1024.55 1024.77 1024.93 1025.04 1025.10 1025.11 1025.09 1025.05 1025.02 1024.99 1024.98 1024.99 1025.02 1025.05 1025.08 1025.10 1025.09 1025.06 1025.00 1024.90 1024.77 1024.61 1024.43 1024.21 1023.96 1023.67 1023.34 1022.96 1022.55 1022.10 1021.63 1021.14 1020.65 1020.16 1019.70 1019.27 1018.87 1018.51
1024.95 1025.10 1025.21 1025.29 1025.34 1025.36 1025.37 1025.37 1025.37 1025.37 1025.38 1025.39 1025.40 1025.42 1025.42 1025.40 1025.36 1025.29 1025.20 1025.07 1024.92 1024.75 1024.55 1024.32 1024.05 1023.75 1023.41 1023.02 1022.60 1022.14 1021.66 1021.16 1020.66 1020.17 1019.71 1019.27 1018.87 1018.50
1025.19 1025.29 1025.38 1025.46 1025.53 1025.59 1025.64 1025.70 1025.74 1025.79 1025.82 1025.85 1025.86 1025.86 1025.82 1025.76 1025.67 1025.55 1025.41 1025.24 1025.04 1024.83 1024.60 1024.34 1024.05 1023.73 1023.38 1022.99 1022.56 1022.10 1021.62 1021.13 1020.63 1020.15 1019.68 1019.25 1018.85 1018.48
1025.28 1025.36 1025.45 1025.54 1025.65 1025.77 1025.88 1026.00 1026.11 1026.20 1026.28 1026.32 1026.33 1026.31 1026.24 1026.13 1025.99 1025.81 1025.61 1025.38 1025.13 1024.88 1024.60 1024.31 1023.99 1023.65 1023.28 1022.88 1022.45 1021.99 1021.51 1021.02 1020.53 1020.05 1019.59 1019.16 1018.75 1018.38
1025.26 1025.34 1025.44 1025.57 1025.73 1025.90 1026.08 1026.26 1026.43 1026.58 1026.69 1026.75 1026.77 1026.73 1026.63 1026.48 1026.29 1026.06 1025.80 1025.52 1025.22 1024.92 1024.60 1024.27 1023.92 1023.56 1023.16 1022.74 1022.29 1021.82 1021.34 1020.84 1020.35 1019.87 1019.40 1018.96 1018.55 1018.17
1025.18 1025.28 1025.41 1025.58 1025.79 1026.01 1026.26 1026.50 1026.72 1026.91 1027.05 1027.13 1027.15 1027.09 1026.98 1026.80 1026.57 1026.30 1025.99 1025.67 1025.34 1024.99 1024.64 1024.28 1023.90 1023.50 1023.07 1022.62 1022.15 1021.65 1021.14 1020.62 1020.11 1019.61 1019.13 1018.67 1018.24 1017.84
1025.12 1025.25 1025.42 1025.63 1025.88 1026.16 1026.45 1026.73 1027.00 1027.22 1027.38 1027.47 1027.49 1027.43 1027.29 1027.09 1026.84 1026.54 1026.22 1025.87 1025.51 1025.14 1024.76 1024.36 1023.95 1023.51 1023.05 1022.56 1022.05 1021.51 1020.96 1020.41 1019.86 1019.32 1018.81 1018.32 1017.87 1017.44
1025.13 1025.29 1025.50 1025.76 1026.05 1026.37 1026.70 1027.02 1027.30 1027.54 1027.71 1027.81 1027.82 1027.75 1027.61 1027.39 1027.13 1026.82 1026.48 1026.12 1025.74 1025.36 1024.96 1024.54 1024.09 1023.62 1023.12 1022.58 1022.02 1021.43 1020.83 1020.23 1019.63 1019.06 1018.50 1017.98 1017.48 1017.02
1025.24 1025.45 1025.70 1025.99 1026.32 1026.68 1027.03 1027.37 1027.67 1027.91 1028.08 1028.17 1028.17 1028.08 1027.92 1027.70 1027.42 1027.11 1026.76 1026.40 1026.02 1025.63 1025.21 1024.77 1024.30 1023.80 1023.26 1022.68 1022.06 1021.43 1020.78 1020.12 1019.48 1018.85 1018.26 1017.69 1017.16 1016.66
Thickness
5729 5728 5727 5728 5729 5729 5727 5724 5716 5708 5709 5717 5719 5721 5718 5715 5712 5709 5707 5704 5701 5699 5697 5695 5693 5691 5689 5688 5686 5685 5683 5682 5681 5680 5679 5678 5678 5678
5726 5725 5723 5724 5724 5725 5724 5723 5720 5713 5707 5711 5713 5714 5713 5710 5705 5704 5702 5699 5696 5694 5691 5689 5687 5685 5683 5681 5679 5678 5676 5674 5673 5672 5671 5670 5669 5669
5723 5722 5719 5719 5718 5719 5719 5717 5715 5712 5705 5705 5707 5706 5705 5702 5698 5697 5695 5693 5689 5687 5685 5683 5680 5678 5676 5673 5671 5669 5667 5665 5663 5662 5661 5660 5659 5658
5718 5717 5715 5715 5713 5711 5711 5710 5708 5707 5702 5696 5697 5697 5695 5694 5691 5689 5687 5686 5683 5680 5678 5675 5672 5669 5667 5664 5662 5659 5657 5655 5652 5651 5650 5648 5648 5647
5713 5711 5710 5708 5706 5705 5703 5702 5701 5700 5697 5692 5689 5689 5687 5685 5682 5679 5678 5675 5673 5671 5669 5665 5662 5660 5657 5654 5651 5648 5646 5643 5641 5639 5637 5636 5635 5634
5707 5705 5703 5701 5699 5698 5696 5694 5693 5690 5688 5684 5680 5678 5676 5674 5671 5666 5664 5662 5661 5660 5657 5654 5652 5649 5646 5643 5640 5636 5633 5630 5628 5626 5625 5623 5622 5621
5699 5697 5695 5693 5692 5690 5688 5685 5683 5679 5676 5673 5669 5665 5662 5659 5656 5654 5651 5649 5647 5646 5644 5641 5639 5637 5634 5631 5627 5623 5620 5617 5615 5613 5611 5609 5608 5607
5690 5688 5685 5683 5681 5678 5676 5674 5672 5668 5665 5662 5657 5652 5648 5645 5643 5641 5638 5635 5631 5632 5629 5627 5626 5623 5621 5618 5614 5610 5607 5604 5601 5599 5597 5595 5594 5593
5683 5680 5678 5674 5671 5667 5664 5662 5658 5655 5653 5650 5643 5638 5634 5631 5629 5627 5624 5620 5617 5617 5616 5612 5611 5608 5605 5603 5599 5595 5592 5589 5586 5584 5582 5580 5578 5577
5673 5671 5667 5663 5661 5658 5654 5649 5643 5640 5639 5635 5630 5626 5621 5618 5616 5613 5610 5608 5605 5604 5602 5597 5595 5592 5590 5586 5584 5580 5577 5574 5570 5568 5566 5563 5562 5560
5662 5658 5655 5652 5649 5647 5643 5637 5631 5625 5622 5620 5616 5612 5608 5605 5602 5599 5595 5592 5588 5586 5584 5580 5577 5576 5574 5571 5568 5563 5560 5557 5554 5552 5549 5547 5545 5543
5648 5644 5641 5639 5636 5634 5630 5625 5618 5613 5610 5607 5603 5599 5595 5591 5587 5582 5578 5574 5571 5569 5566 5561 5558 5556 5555 5553 5549 5546 5543 5540 5538 5535 5533 5530 5528 5525
5637 5630 5626 5624 5622 5619 5615 5610 5604 5600 5597 5594 5590 5586 5582 5577 5573 5568 5564 5560 5555 5551 5549 5545 5541 5537 5533 5533 5531 5529 5526 5524 5521 5518 5515 5513 5510 5507
5625 5618 5613 5610 5608 5605 5601 5595 5591 5588 5584 5580 5576 5572 5568 5563 5559 5555 5551 5546 5542 5538 5534 5529 5525 5520 5516 5514 5514 5512 5509 5506 5504 5501 5498 5496 5493 5491
5612 5606 5602 5598 5595 5591 5586 5582 5578 5574 5571 5566 5561 5557 5553 5549 5546 5542 5538 5533 5529 5525 5521 5515 5511 5506 5501 5497 5496 5494 5492 5489 5487 5484 5481 5479 5477 5476
5599 5594 5590 5586 5581 5577 5573 5569 5564 5560 5556 5552 5547 5543 5540 5536 5532 5527 5523 5519 5515 5510 5505 5500 5496 5491 5486 5483 5480 5478 5475 5472 5470 5468 5465 5464 5463 5462
5587 5583 5578 5574 5569 5565 5562 5557 5552 5547 5542 5538 5534 5529 5525 5521 5517 5513 5508 5504 5499 5494 5490 5486 5481 5476 5472 5469 5466 5463 5460 5458 5455 5453 5451 5450 5450 5449
5577 5573 5569 5564 5559 5555 5550 5544 5539 5534 5528 5524 5520 5516 5511 5507 5502 5498 5493 5488 5482 5478 5474 5471 5468 5464 5460 5456 5451 5449 5446 5444 5442 5440 5439 5438 5439 5439
5565 5562 5557 5552 5547 5542 5537 5532 5527 5521 5516 5512 5507 5502 5497 5493 5489 5484 5479 5473 5468 5464 5460 5458 5454 5449 5445 5443 5440 5437 5434 5433 5432 5430 5429 5428 5429 5430
5554 5551 5546 5540 5535 5530 5525 5520 5515 5510 5504 5500 5495 5489 5484 5480 5475 5470 5466 5461 5456 5453 5450 5446 5442 5437 5432 5430 5430 5429 5427 5425 5423 5422 5422 5421 5421 5422
5545 5540 5535 5530 5524 5518 5513 5508 5503 5498 5492 5487 5482 5476 5472 5467 5463 5459 5455 5450 5446 5443 5439 5436 5432 5429 5426 5424 5422 5422 5420 5418 5416 5415 5415 5415 5415 5417
5535 5530 5524 5518 5512 5507 5501 5496 5492 5486 5480 5475 5470 5465 5461 5456 5453 5449 5446 5442 5438 5435 5431 5428 5426 5423 5420 5417 5415 5414 5414 5413 5412 5411 5410 5409 5407 5408
5524 5519 5513 5507 5501 5495 5490 5485 5481 5475 5469 5463 5458 5454 5451 5447 5444 5441 5437 5434 5431 5428 5425 5422 5419 5416 5414 5411 5409 5408 5408 5408 5408 5407 5407 5406 5405 5406